Weather History for Montauk, NY

Change the Weather History Date:

Wednesday, February 13, 2013

  Actual Average (KHTO) Record (KHTO)
Temperature  
Mean Temperature 36 °F -  
Max Temperature 39 °F 37 °F 54 °F (1951)
Min Temperature 33 °F 21 °F 0 °F (1967)
Degree Days  
Heating Degree Days 29    
Moisture  
Dew Point 25 °F    
Average Humidity 64    
Maximum Humidity 79    
Minimum Humidity 49    
Precipitation  
Precipitation 0.00 in - - ()
Sea Level Pressure  
Sea Level Pressure 29.83 in    
Wind  
Wind Speed 4 mph (NW)    
Max Wind Speed 9 mph    
Max Gust Speed -    
Averages and records for this station are not official NWS values.
T = Trace of Precipitation, MM = Missing Value Source: NWS Daily Summary

Daily Weather History Graph

Daily Weather History Graph

Search for Another Location

Airport:

Trip Planner

Search our weather history database for the weather conditions in past years. The results will help you decide how hot, cold, wet, or windy it might be!

Date:

Astronomy

Feb. 13, 2013 Rise Set
Actual Time 6:44 AM EST 5:19 PM EST
Civil Twilight 6:16 AM EST 5:48 PM EST
Nautical Twilight 5:43 AM EST 6:20 PM EST
Astronomical Twilight 5:11 AM EST 6:52 PM EST
Moon 8:09 AM EST (2/13) 9:22 PM EST (2/13)
Length of Visible Light 11h 32m
Length of Day
10h 35m
Waxing Crescent, 13% of the Moon is Illuminated
Feb 13
Waxing Crescent
Feb 17
First Quarter
Feb 25
Full
Mar 4
Last Quarter
Mar 11
New

Hourly Weather History & Observations

Time (EST) Temp. Windchill Dew Point Humidity Pressure Visibility Wind Dir Wind Speed Gust Speed Precip Events Conditions
12:54 AM 36.0 °F 31.1 °F 28.0 °F 73% 29.91 in - West 5.8 mph - N/A   Unknown
1:54 AM 36.0 °F 31.1 °F 28.0 °F 73% 29.92 in - West 5.8 mph - N/A   Unknown
3:54 AM 33.1 °F - 27.0 °F 78% 29.92 in - Calm Calm - N/A   Unknown
4:54 AM 34.0 °F 29.8 °F 28.0 °F 79% 29.90 in - West 4.6 mph - N/A   Unknown
5:54 AM 35.1 °F 27.9 °F 25.0 °F 67% 29.89 in - NW 9.2 mph - N/A   Unknown
6:54 AM 35.1 °F 30.1 °F 21.9 °F 59% 29.91 in - WNW 5.8 mph - N/A   Unknown
7:54 AM 36.0 °F 31.1 °F 21.9 °F 57% 29.92 in - WNW 5.8 mph - N/A   Unknown
8:54 AM 37.0 °F 32.4 °F 23.0 °F 57% 29.91 in - WNW 5.8 mph - N/A   Unknown
9:54 AM 37.9 °F 34.4 °F 23.0 °F 55% 29.89 in - Variable 4.6 mph - N/A   Unknown
10:54 AM 37.9 °F - 21.9 °F 53% 29.88 in - Calm Calm - N/A   Unknown
11:54 AM 39.9 °F 35.1 °F 23.0 °F 51% 29.89 in - West 6.9 mph - N/A   Unknown
12:54 PM 39.9 °F 37.8 °F 23.0 °F 51% 29.86 in - Variable 3.5 mph - N/A   Unknown
1:54 PM 39.9 °F 35.1 °F 21.9 °F 49% 29.83 in - NNW 6.9 mph - N/A   Unknown
2:54 PM 39.9 °F 36.7 °F 21.9 °F 49% 29.79 in - Variable 4.6 mph - N/A   Unknown
3:54 PM 37.9 °F 35.5 °F 24.1 °F 57% 29.79 in - South 3.5 mph - N/A   Unknown
4:54 PM 37.0 °F - 25.0 °F 62% 29.77 in - Calm Calm - N/A   Unknown
5:54 PM 33.1 °F - 24.1 °F 70% 29.75 in - Calm Calm - N/A   Unknown
6:54 PM 33.1 °F - 25.0 °F 72% 29.74 in - Calm Calm - N/A   Unknown
7:54 PM 34.0 °F - 26.1 °F 73% 29.73 in - Calm Calm - N/A   Unknown
8:54 PM 35.1 °F - 26.1 °F 70% 29.73 in - Calm Calm - N/A   Unknown
9:54 PM 37.0 °F 34.5 °F 28.0 °F 70% 29.70 in - NE 3.5 mph - N/A   Unknown
10:54 PM 37.9 °F 34.4 °F 28.0 °F 68% 29.67 in - NNE 4.6 mph - N/A   Unknown
11:54 PM 37.9 °F 34.4 °F 28.9 °F 70% 29.72 in - North 4.6 mph - N/A   Unknown